Fort Drum, NY

1:03 PM EDT on April 26, 2017 (GMT -0400)
Wheeler-Sack Army Air Field

Weather History for KGTB - May, 2013

Change the Weather History Date:

Friday, May 24, 2013

  Actual Average Record
Temperature  
Mean Temperature 42 °F -  
Max Temperature 46 °F 64 °F 85 °F (2007)
Min Temperature 38 °F 44 °F 38 °F (2013)
Degree Days  
Heating Degree Days 23    
Moisture  
Dew Point 41 °F    
Average Humidity 98    
Maximum Humidity 100    
Minimum Humidity 82    
Precipitation  
Precipitation 0.32 in - - ()
Sea Level Pressure  
Sea Level Pressure 29.98 in    
Wind  
Wind Speed 9 mph (North)    
Max Wind Speed 15 mph    
Max Gust Speed 23 mph    
Visibility 10 miles    
Events Rain    
Averages and records for this station are not official NWS values.
T = Trace of Precipitation, MM = Missing Value Source: NWS Daily Summary

Daily Weather History Graph

Daily Weather History Graph

Search for Another Location

Airport or City:

Trip Planner

Search our weather history database for the weather conditions in past years. The results will help you decide how hot, cold, wet, or windy it might be!

Date:

Astronomy

May. 24, 2013 Rise Set
Actual Time 5:27 AM EDT 8:32 PM EDT
Civil Twilight 4:53 AM EDT 9:06 PM EDT
Nautical Twilight 4:09 AM EDT 9:51 PM EDT
Astronomical Twilight 3:16 AM EDT 10:44 PM EDT
Moon 8:10 PM EDT (5/24) 5:00 AM EDT (5/24)
Length of Visible Light 16h 13m
Length of Day
15h 04m
Full, 100% of the Moon is Illuminated
May 24
Full
May 25
Full
May 31
Last Quarter
Jun 8
New
Jun 16
First Quarter

Hourly Weather History & Observations

Time (EDT) Temp. Windchill Dew Point Humidity Pressure Visibility Wind Dir Wind Speed Gust Speed Precip Events Conditions
12:23 AM 44.6 °F 40.2 °F 44.6 °F 100% 29.83 in 10.0 mi NNE 8.1 mph - N/A Rain Rain
12:43 AM 44.6 °F 39.7 °F 44.6 °F 100% 29.82 in 10.0 mi North 9.2 mph - N/A Rain Light Rain
12:48 AM 44.6 °F 40.2 °F 44.6 °F 100% 29.82 in 10.0 mi North 8.1 mph - N/A Rain Light Rain
12:53 AM 44.6 °F 40.7 °F 44.6 °F 100% 29.82 in 10.0 mi Variable 6.9 mph - N/A Rain Light Rain
12:58 AM 44.2 °F 39.2 °F 44.2 °F 100% 29.83 in 10.0 mi North 9.2 mph - 0.05 in Rain Light Rain
1:23 AM 44.6 °F 41.4 °F 44.6 °F 100% 29.83 in 10.0 mi North 5.8 mph - N/A Rain Light Rain
1:33 AM 44.6 °F 42.2 °F 44.6 °F 100% 29.83 in 10.0 mi North 4.6 mph - N/A Rain Light Rain
1:58 AM 42.8 °F 37.5 °F 42.8 °F 100% 29.84 in 10.0 mi North 9.2 mph - 0.04 in Rain Light Rain
2:03 AM 42.8 °F 37.0 °F 42.8 °F 100% 29.83 in 10.0 mi North 10.4 mph 18.4 mph N/A Rain Light Rain
2:13 AM 42.8 °F 36.6 °F 42.8 °F 100% 29.83 in 10.0 mi North 11.5 mph 18.4 mph N/A   Overcast
2:25 AM 42.8 °F 37.0 °F 42.8 °F 100% 29.83 in 10.0 mi North 10.4 mph 19.6 mph N/A   Light Drizzle
2:40 AM 42.8 °F 37.0 °F 42.8 °F 100% 29.83 in 10.0 mi North 10.4 mph - N/A Rain Light Rain
2:58 AM 42.3 °F 35.5 °F 42.3 °F 100% 29.83 in 10.0 mi North 12.7 mph 18.4 mph 0.01 in Rain Light Rain
3:18 AM 42.8 °F 38.6 °F 42.8 °F 100% 29.84 in 10.0 mi North 6.9 mph - N/A Rain Light Rain
3:33 AM 42.8 °F 38.6 °F 42.8 °F 100% 29.84 in 10.0 mi Variable 6.9 mph - N/A Rain Light Rain
3:58 AM 41.7 °F 38.0 °F 41.7 °F 100% 29.85 in 10.0 mi North 5.8 mph - 0.05 in Rain Light Rain
4:43 AM 41.0 °F 35.2 °F 41.0 °F 100% 29.86 in 10.0 mi North 9.2 mph - N/A Rain Light Rain
4:58 AM 41.0 °F 35.8 °F 41.0 °F 100% 29.86 in 10.0 mi North 8.1 mph - 0.01 in Rain Light Rain
5:23 AM 41.0 °F 35.8 °F 41.0 °F 100% 29.87 in 9.0 mi North 8.1 mph - N/A Rain Light Rain
5:38 AM 41.0 °F 36.4 °F 41.0 °F 100% 29.88 in 9.0 mi North 6.9 mph - N/A Rain Light Rain
5:58 AM 40.8 °F 35.0 °F 40.8 °F 100% 29.88 in 9.0 mi North 9.2 mph - 0.03 in Rain Light Rain
6:23 AM 41.0 °F 36.4 °F 41.0 °F 100% 29.90 in 10.0 mi North 6.9 mph - N/A   Light Drizzle
6:28 AM 41.0 °F 36.4 °F 41.0 °F 100% 29.90 in 10.0 mi North 6.9 mph - N/A   Overcast
6:47 AM 41.0 °F 35.2 °F 41.0 °F 100% 29.91 in 10.0 mi North 9.2 mph - N/A   Light Drizzle
6:58 AM 40.3 °F 34.4 °F 40.3 °F 100% 29.93 in 9.0 mi North 9.2 mph - 0.00 in   Light Drizzle
7:23 AM 41.0 °F 35.8 °F 41.0 °F 100% 29.93 in 10.0 mi North 8.1 mph - N/A   Light Drizzle
7:58 AM 39.2 °F 33.0 °F 39.2 °F 100% 29.95 in 9.0 mi NW 9.2 mph - 0.01 in   Light Drizzle
8:58 AM 38.8 °F 33.2 °F 38.8 °F 100% 29.99 in 5.0 mi NNW 8.1 mph - 0.01 in   Overcast
9:48 AM 39.2 °F 34.2 °F 39.2 °F 100% 29.99 in 10.0 mi North 6.9 mph 21.9 mph N/A Rain Light Rain
9:53 AM 39.2 °F 33.0 °F 39.2 °F 100% 29.99 in 10.0 mi North 9.2 mph - N/A Rain Light Rain
9:58 AM 38.8 °F 32.6 °F 38.8 °F 100% 30.01 in 10.0 mi North 9.2 mph - 0.04 in Rain Rain
10:03 AM 39.2 °F 33.0 °F 39.2 °F 100% 29.99 in 10.0 mi NNW 9.2 mph - N/A Rain Light Rain
10:33 AM 39.2 °F 30.8 °F 39.2 °F 100% 30.00 in 10.0 mi North 15.0 mph 23.0 mph N/A   Light Drizzle
10:38 AM 39.2 °F 33.6 °F 39.2 °F 100% 30.01 in 10.0 mi North 8.1 mph 19.6 mph N/A   Light Drizzle
10:58 AM 39.2 °F 33.6 °F 39.2 °F 100% 30.04 in 10.0 mi North 8.1 mph - 0.01 in   Light Drizzle
11:18 AM 39.2 °F 32.0 °F 39.2 °F 100% 30.02 in 10.0 mi North 11.5 mph 19.6 mph N/A Rain Light Rain
11:23 AM 39.2 °F 33.0 °F 39.2 °F 100% 30.02 in 10.0 mi North 9.2 mph 19.6 mph N/A Rain Light Rain
11:53 AM 39.2 °F 32.5 °F 39.2 °F 100% 30.03 in 10.0 mi North 10.4 mph 17.3 mph N/A   Overcast
11:58 AM 39.0 °F 33.4 °F 39.0 °F 100% 30.05 in 10.0 mi North 8.1 mph 17.3 mph 0.00 in   Overcast
12:04 PM 39.2 °F 32.0 °F 39.2 °F 100% 30.04 in 10.0 mi North 11.5 mph 17.3 mph N/A   Light Drizzle
12:09 PM 39.2 °F 32.5 °F 39.2 °F 100% 30.04 in 10.0 mi North 10.4 mph 17.3 mph N/A   Overcast
12:16 PM 39.2 °F 33.0 °F 39.2 °F 100% 30.04 in 10.0 mi North 9.2 mph - N/A   Light Drizzle
12:52 PM 39.2 °F 33.0 °F 39.2 °F 100% 30.05 in 10.0 mi North 9.2 mph 17.3 mph N/A   Overcast
12:58 PM 39.4 °F 31.8 °F 39.4 °F 100% 30.07 in 10.0 mi North 12.7 mph - 0.00 in   Overcast
12:59 PM 39.2 °F 31.6 °F 39.2 °F 100% 30.05 in 10.0 mi North 12.7 mph - N/A   Light Drizzle
1:14 PM 39.2 °F 33.0 °F 39.2 °F 100% 30.05 in 6.0 mi North 9.2 mph - N/A   Light Drizzle
1:58 PM 40.1 °F 33.6 °F 40.1 °F 100% 30.08 in 6.0 mi North 10.4 mph - 0.01 in Rain Light Rain
2:23 PM 41.0 °F 34.3 °F 41.0 °F 100% 30.07 in 5.0 mi North 11.5 mph 20.7 mph N/A Rain Rain
2:33 PM 41.0 °F 35.8 °F 41.0 °F 100% 30.08 in 8.0 mi North 8.1 mph 18.4 mph N/A Rain Light Rain
2:43 PM 41.0 °F 33.5 °F 41.0 °F 100% 30.08 in 10.0 mi North 13.8 mph 23.0 mph N/A Rain Light Rain
2:53 PM 41.0 °F 33.9 °F 41.0 °F 100% 30.08 in 10.0 mi NNE 12.7 mph 20.7 mph N/A Rain Light Rain
2:58 PM 41.0 °F 33.5 °F 41.0 °F 100% 30.10 in 10.0 mi North 13.8 mph 20.7 mph 0.04 in Rain Light Rain
3:08 PM 41.0 °F 34.7 °F 41.0 °F 100% 30.08 in 10.0 mi NNE 10.4 mph - N/A Rain Light Rain
3:58 PM 42.6 °F 36.8 °F 42.3 °F 99% 30.10 in 10.0 mi North 10.4 mph 19.6 mph 0.01 in   Light Drizzle
4:08 PM 42.8 °F 37.5 °F 42.8 °F 100% 30.08 in 10.0 mi North 9.2 mph 17.3 mph N/A   Light Drizzle
4:13 PM 44.6 °F 39.7 °F 42.8 °F 93% 30.08 in 10.0 mi North 9.2 mph 17.3 mph N/A   Light Drizzle
4:23 PM 44.6 °F 38.8 °F 42.8 °F 93% 30.07 in 10.0 mi North 11.5 mph 20.7 mph N/A   Light Drizzle
4:35 PM 44.6 °F 37.8 °F 42.8 °F 93% 30.07 in 10.0 mi NNE 15.0 mph 20.7 mph N/A   Mostly Cloudy
4:45 PM 44.6 °F 39.2 °F 41.0 °F 87% 30.08 in 10.0 mi NNE 10.4 mph 20.7 mph N/A   Mostly Cloudy
4:58 PM 44.8 °F 41.0 °F 41.5 °F 88% 30.10 in 10.0 mi North 6.9 mph - 0.00 in   Mostly Cloudy
5:58 PM 46.0 °F - 42.1 °F 86% 30.10 in 10.0 mi Variable 1.2 mph - N/A   Overcast
6:58 PM 46.4 °F 45.2 °F 43.5 °F 90% 30.10 in 10.0 mi WNW 3.5 mph - N/A   Overcast
7:58 PM 46.6 °F - 44.4 °F 92% 30.11 in 10.0 mi WNW 3.5 mph - N/A   Overcast
8:58 PM 46.0 °F - 45.0 °F 96% 30.10 in 10.0 mi NW 2.3 mph - N/A   Overcast
9:58 PM 45.7 °F 44.4 °F 41.9 °F 87% 30.12 in 10.0 mi NW 3.5 mph - N/A   Overcast
10:58 PM 45.1 °F 42.8 °F 41.0 °F 85% 30.12 in 10.0 mi NNW 4.6 mph - N/A   Overcast
11:58 PM 45.0 °F - 39.9 °F 82% 30.11 in 10.0 mi NW 2.3 mph - N/A   Overcast